View from above orbital plane
|
View from above satellite
|
Ground track
|
The orbit data is extracted from the following two-line orbital elements,
1 39679U 14021B 21060.28965657 .00000291 00000-0 32196-4 0 9996
2 39679 51.6166 355.2256 0171222 115.9365 245.9361 15.06774297377740
Epoch (UTC): | 01 March 2021 06:57:06 |
Eccentricity: | 0.0171222 |
inclination: | 51.6166° |
perigee height: | 427 km |
apogee height: | 664 km |
right ascension of ascending node: | 355.2256° |
argument of perigee: | 115.9365° |
revolutions per day: | 15.06774297 |
mean anomaly at epoch: | 245.9361° |
orbit number at epoch: | 37774 |
The dashed part of the orbit path shows where the satellite is in the earth's shadow,
|
|